Glasgow, United Kingdom

7:41 PM BST on May 25, 2017 (GMT +0100)
Glasgow

Weather History for EGPF - January, 2013

Change the Weather History Date:

Thursday, January 17, 2013

  Actual Average Record
Temperature  
Mean Temperature 34 °F -  
Max Temperature 35 °F 44 °F 51 °F (2003)
Min Temperature 32 °F 32 °F 24 °F (2015)
Degree Days  
Heating Degree Days 32    
Moisture  
Dew Point 27 °F    
Average Humidity 76    
Maximum Humidity 87    
Minimum Humidity 70    
Precipitation  
Precipitation 0.00 in - - ()
Sea Level Pressure  
Sea Level Pressure 29.91 in    
Wind  
Wind Speed 7 mph ()    
Max Wind Speed 16 mph    
Max Gust Speed -    
Visibility 6.2 miles    
Events      
Averages and records for this station are not official NWS values.
T = Trace of Precipitation, MM = Missing Value Source: Averaged Metar Reports

Daily Weather History Graph

Daily Weather History Graph

Search for Another Location

Airport or City:

Trip Planner

Search our weather history database for the weather conditions in past years. The results will help you decide how hot, cold, wet, or windy it might be!

Date:

Astronomy

Jan. 17, 2013 Rise Set
Actual Time 8:35 AM GMT 4:20 PM GMT
Civil Twilight 7:51 AM GMT 5:04 PM GMT
Nautical Twilight 7:04 AM GMT 5:51 PM GMT
Astronomical Twilight 6:20 AM GMT 6:35 PM GMT
Moon 10:17 AM GMT (1/17) No Moon Set
Length of Visible Light 9h 12m
Length of Day
7h 45m
Waxing Crescent, 35% of the Moon is Illuminated
Jan 17
Waxing Crescent
Jan 18
First Quarter
Jan 27
Full
Feb 3
Last Quarter
Feb 10
New

Hourly Weather History & Observations

Time (GMT) Temp. Windchill Dew Point Humidity Pressure Visibility Wind Dir Wind Speed Gust Speed Precip Events Conditions
12:20 AM 32.0 °F 27.5 °F 28.4 °F 87% 29.98 in 6.2 mi NE 4.6 mph - N/A   Mostly Cloudy
12:50 AM 33.8 °F 28.6 °F 26.6 °F 75% 29.98 in 6.2 mi ENE 5.8 mph - N/A   Overcast
1:20 AM 32.0 °F 27.5 °F 26.6 °F 80% 29.98 in 6.2 mi ENE 4.6 mph - N/A   Overcast
1:50 AM 33.8 °F 28.6 °F 26.6 °F 75% 29.98 in 6.2 mi ENE 5.8 mph - N/A   Overcast
2:20 AM 33.8 °F 27.0 °F 26.6 °F 75% 29.98 in 6.2 mi East 8.1 mph - N/A   Overcast
2:50 AM 33.8 °F 28.6 °F 26.6 °F 75% 29.98 in 6.2 mi East 5.8 mph - N/A   Overcast
3:20 AM 33.8 °F 28.6 °F 26.6 °F 75% 29.98 in 6.2 mi ENE 5.8 mph - N/A   Mostly Cloudy
3:50 AM 33.8 °F 28.6 °F 26.6 °F 75% 29.98 in 6.2 mi ENE 5.8 mph - N/A   Mostly Cloudy
4:20 AM 33.8 °F 27.7 °F 28.4 °F 81% 29.98 in 6.2 mi ENE 6.9 mph - N/A   Mostly Cloudy
4:50 AM 33.8 °F 28.6 °F 28.4 °F 81% 29.98 in 6.2 mi ENE 5.8 mph - N/A   Overcast
5:20 AM 33.8 °F 28.6 °F 28.4 °F 81% 29.95 in 6.2 mi ENE 5.8 mph - N/A   Overcast
5:50 AM 33.8 °F 27.7 °F 28.4 °F 81% 29.95 in 6.2 mi ENE 6.9 mph - N/A   Overcast
6:20 AM 33.8 °F 28.6 °F 26.6 °F 75% 29.95 in 6.2 mi ENE 5.8 mph - N/A   Overcast
6:50 AM 33.8 °F 28.6 °F 28.4 °F 81% 29.98 in 6.2 mi NE 5.8 mph - N/A   Mostly Cloudy
7:20 AM 33.8 °F 28.6 °F 28.4 °F 81% 29.98 in 6.2 mi ENE 5.8 mph - N/A   Mostly Cloudy
7:50 AM 33.8 °F 28.6 °F 28.4 °F 81% 29.95 in 6.2 mi ENE 5.8 mph - N/A   Mostly Cloudy
8:20 AM 33.8 °F 27.7 °F 26.6 °F 75% 29.98 in 6.2 mi ENE 6.9 mph - N/A   Mostly Cloudy
8:50 AM 33.8 °F 27.7 °F 26.6 °F 75% 29.98 in 6.2 mi ENE 6.9 mph - N/A   Mostly Cloudy
9:20 AM 33.8 °F 28.6 °F 26.6 °F 75% 29.98 in 6.2 mi ENE 5.8 mph - N/A   Mostly Cloudy
9:50 AM 33.8 °F 27.7 °F 28.4 °F 81% 29.98 in 6.2 mi ENE 6.9 mph - N/A   Mostly Cloudy
10:20 AM 33.8 °F 28.6 °F 28.4 °F 81% 29.98 in 6.2 mi ENE 5.8 mph - N/A   Mostly Cloudy
10:50 AM 33.8 °F 26.4 °F 26.6 °F 75% 29.98 in 6.2 mi ENE 9.2 mph - N/A   Mostly Cloudy
11:20 AM 35.6 °F 29.9 °F 28.4 °F 75% 29.98 in 6.2 mi ENE 6.9 mph - N/A   Partly Cloudy
11:50 AM 35.6 °F 29.9 °F 26.6 °F 70% 29.95 in - ENE 6.9 mph - N/A   Clear
12:20 PM 35.6 °F 28.6 °F 26.6 °F 70% 29.95 in - ENE 9.2 mph - N/A   Clear
12:50 PM 35.6 °F 27.5 °F 26.6 °F 70% 29.95 in - ENE 11.5 mph - N/A   Clear
1:20 PM 35.6 °F 27.5 °F 26.6 °F 70% 29.92 in - ENE 11.5 mph - N/A   Clear
1:50 PM 35.6 °F 27.1 °F 26.6 °F 70% 29.92 in - ENE 12.7 mph - N/A   Clear
2:20 PM 35.6 °F 29.2 °F 28.4 °F 75% 29.92 in - ENE 8.1 mph - N/A   Clear
2:50 PM 35.6 °F 29.2 °F 26.6 °F 70% 29.89 in - ENE 8.1 mph - N/A   Clear
3:20 PM 35.6 °F 28.0 °F 26.6 °F 70% 29.89 in - ENE 10.4 mph - N/A   Clear
3:50 PM 35.6 °F 28.6 °F 26.6 °F 70% 29.89 in - ENE 9.2 mph - N/A   Clear
4:20 PM 35.6 °F 28.6 °F 26.6 °F 70% 29.89 in - ENE 9.2 mph - N/A   Clear
4:50 PM 35.6 °F 28.6 °F 26.6 °F 70% 29.86 in - ENE 9.2 mph - N/A   Clear
5:20 PM 33.8 °F 26.4 °F 26.6 °F 75% 29.86 in - ENE 9.2 mph - N/A   Clear
5:50 PM 33.8 °F 25.8 °F 26.6 °F 75% 29.86 in - ENE 10.4 mph - N/A   Clear
6:20 PM 33.8 °F 27.0 °F 26.6 °F 75% 29.86 in - ENE 8.1 mph - N/A   Clear
6:50 PM 35.6 °F 28.6 °F 26.6 °F 70% 29.83 in - ENE 9.2 mph - N/A   Clear
7:20 PM 33.8 °F 25.3 °F 26.6 °F 75% 29.83 in - ENE 11.5 mph - N/A   Clear
7:50 PM 33.8 °F 26.4 °F 26.6 °F 75% 29.83 in - ENE 9.2 mph - N/A   Clear
8:20 PM 33.8 °F 25.8 °F 26.6 °F 75% 29.83 in 6.2 mi ENE 10.4 mph - N/A   Partly Cloudy
8:50 PM 33.8 °F 24.8 °F 26.6 °F 75% 29.83 in 6.2 mi ENE 12.7 mph - N/A   Scattered Clouds
9:20 PM 33.8 °F 24.8 °F 28.4 °F 81% 29.80 in 6.2 mi ENE 12.7 mph - N/A   Scattered Clouds
9:50 PM 33.8 °F 24.8 °F 28.4 °F 81% 29.80 in 6.2 mi East 12.7 mph - N/A   Scattered Clouds
10:20 PM 33.8 °F 25.8 °F 28.4 °F 81% 29.80 in 6.2 mi ENE 10.4 mph - N/A   Mostly Cloudy
10:50 PM 35.6 °F 25.9 °F 28.4 °F 75% 29.80 in 6.2 mi East 16.1 mph - N/A   Mostly Cloudy
11:20 PM 35.6 °F 27.1 °F 28.4 °F 75% 29.77 in 6.2 mi East 12.7 mph - N/A   Mostly Cloudy
11:50 PM 35.6 °F 25.9 °F 28.4 °F 75% 29.77 in 6.2 mi East 16.1 mph - N/A   Mostly Cloudy